Back to catalog

QIANFAN-179

AliveCommunicationsPO
NORAD 69396·PAYLOAD·🇨🇳 China

Launched Jun 4, 2026 from Taiyuan Satellite Launch Center

Loading…

Next Passes (next 24 hours)

TLE

FreshSource: Space-Track

Epoch: Sep 14, 2026, 14:15 UTC

1 69396U 26124Q   26257.59412216  .00000135  00000-0  18993-3 0  9992
2 69396  89.0046 352.5293 0001850  99.6840 260.4521 13.51028909 14150

Track QIANFAN-179 in real time with AllMySat

Download on the App Store